Погода в Завалове

Украина / Тернопольская область     49°12′25″N   25°01′53″E
темп.,
°C
ветер,
м/с
пор.,
м/с
влажн.,
%
обл.,
%
осадки,
мм/ч
давл.,
гПа
погр.,
м
19 сентября, вс
вс1900:00+11з61294100 1.3 1009661
03:00+11з61290100 1.6 1009684
06:00+8зсз71194100 1.9 1010718
09:00+7зсз61292100 3.6 10111088
12:00+6з61093100 0.2 10121011
15:00+7зсз61092100 0.6 10121221
18:00+6зсз71192100 0.4 10121151
21:00+5зсз61195100 1.4 1013970
20 сентября, пн
пн2000:00+5зсз61096100 0.9 1013930
03:00+5зсз61096100 1.1 1014774
06:00+6зсз51094100 0.2 1014651
09:00+6зсз5995100 0.3 1015643
12:00+6зсз5894100 0.2 1016840
15:00+6зсз5892100 0.3 1017973
18:00+6сз51090100 0.1 1017728
21:00+5зсз51092100 0.2 1019682
21 сентября, вт
вт2100:00+5зсз51091100 0.1 1020746
03:00+5зсз51184100 0.2 1020864
06:00+5сз51283100 0.0 1020839
09:00+5сз51182100 0.0 1021946
12:00+6сз71074100 0.1 10231240
15:00+7сз7972100 0.1 10231064
18:00+7зсз6107699 0.1 10241020
21:00+6зсз51075100 0.1 1025721
22 сентября, ср
ср2200:00+6зсз5107376 0.0 1024523
03:00+3сз389234 0.0 1024172
06:00+3зсз3992100 0.0 1024222
09:00+5сз498367 0.0 1023467
12:00+10ссз795997 0.1 10211601
15:00+10ссз6957100 0.1 10201671
18:00+10ссз486197 0.0 10201361
21:00+5сз227953 0.0 102018
23 сентября, чт
чт2300:00+4зсз3780100 0.0 1020132
03:00+3зсз2582100 0.0 1019101
06:00+3зсз3109185 0.0 1019223
09:00+6зсз48826 0.0 1018336
12:00+10сз5768100 0.1 10171075
15:00+9зсз6981100 0.1 1016627
18:00+10з3878100 0.1 1014472
21:00+9юз31176100 0.1 1014389